VU2EOJ-13 Weather Reports


Display with metric or nautical units.
time (UTC)temp
F
wind
direction
speed
MPH
gust
MPH
rain 1hr
in
rain 24hr
in
rain mn
in
humidity
%
barometer
mb
20221003143410 84 0.0 0.0 0.00 0.00 0.00 88 1010.1
20221003141500 84 0.0 0.0 0.00 0.00 0.00 87 1009.7
20221003114044 85 0.0 0.0 0.00 0.00 0.00 80 1007.9
20221003112140 85 0.0 0.0 0.00 0.00 0.00 81 1007.9
20221003104309 86 0.0 0.0 0.00 0.00 0.00 82 1007.9
20221003092611 87 0.0 0.0 0.00 0.00 0.00 78 1008.3
20221003085727 87 0.0 0.0 0.00 0.00 0.00 79 1008.7
20221003084755 87 0.0 0.0 0.00 0.00 0.00 80 1008.8
20221003075945 87 0.0 0.0 0.00 0.00 0.00 75 1009.5
20221003061347 85 0.0 0.0 0.00 0.00 0.00 83 1011.2
20221003060416 85 0.0 0.0 0.00 0.00 0.00 81 1011.2
20221003054507 85 0.0 0.0 0.00 0.00 0.00 83 1011.3
20221003053531 84 0.0 0.0 0.00 0.00 0.00 84 1011.5
20221003025149 81 0.0 0.0 0.00 0.00 0.00 100 1011.2
20221003024217 81 0.0 0.0 0.00 0.00 0.00 100 1011.0
20221003015415 80 0.0 0.0 0.00 0.00 0.00 100 1010.6
20221003014443 80 0.0 0.0 0.00 0.00 0.00 100 1010.3
20221003011555 80 0.0 0.0 0.00 0.00 0.00 100 1009.8
20221003002749 80 0.0 0.0 0.00 0.00 0.00 100 1009.2
20221003001813 80 0.0 0.0 0.00 0.00 0.00 100 1009.1
20221002235909 81 0.0 0.0 0.00 0.00 0.00 100 1009.1
20221002233952 81 0.0 0.0 0.00 0.00 0.00 100 1009.0
20221002233017 81 0.0 0.0 0.00 0.00 0.00 100 1008.8
20221002232040 81 0.0 0.0 0.00 0.00 0.00 100 1008.8
20221002230131 81 0.0 0.0 0.00 0.00 0.00 100 1008.6
20221002224216 81 0.0 0.0 0.00 0.00 0.00 100 1008.6
20221002222300 81 0.0 0.0 0.00 0.00 0.00 100 1008.7
20221002211531 82 0.0 0.0 0.00 0.00 0.00 98 1008.9
20221002205623 82 0.0 0.0 0.00 0.00 0.00 98 1009.0
20221002204650 82 0.0 0.0 0.00 0.00 0.00 98 1009.1
20221002203718 82 0.0 0.0 0.00 0.00 0.00 97 1009.1
20221002202735 82 0.0 0.0 0.00 0.00 0.00 98 1009.1
20221002201807 82 0.0 0.0 0.00 0.00 0.00 97 1009.2
20221002200830 82 0.0 0.0 0.00 0.00 0.00 98 1009.2
20221002195857 82 0.0 0.0 0.00 0.00 0.00 97 1009.3
20221002183216 83 0.0 0.0 0.00 0.00 0.00 93 1009.8
20221002175348 83 0.0 0.0 0.00 0.00 0.00 94 1009.9
20221002170532 83 0.0 0.0 0.00 0.00 0.00 96 1010.2
20221002164626 83 0.0 0.0 0.00 0.00 0.00 95 1010.3
20221002163646 83 0.0 0.0 0.00 0.00 0.00 95 1010.3
20221002162712 83 0.0 0.0 0.00 0.00 0.00 95 1010.3
20221002160803 83 0.0 0.0 0.00 0.00 0.00 97 1010.3
20221002155831 83 0.0 0.0 0.00 0.00 0.00 96 1010.3
20221002154900 83 0.0 0.0 0.00 0.00 0.00 94 1010.3
20221002153927 83 0.0 0.0 0.00 0.00 0.00 94 1010.1
20221002152957 83 0.0 0.0 0.00 0.00 0.00 94 1010.1